This demonstration page uses our WeatherBlox Daily Observations layout. Learn more.

Left ArrowRight Arrow

41.55636, -103.73856

Hourly Observations for July 17, 2015

Temp ( °F °C ) Dew Point ( °F °C ) Humidity (%) Winds ( mph kmh ) Pressure ( in mb ) Visibility ( mi km ) Precip ( " mm )
12:53 am 00:53 Clear 64 17.8 51 10.6 63 63 NNW 6 9 29.73 1007 10 16.0934 0 0
1:53 am 01:53 Clear 63 17.2 50 10 63 63 NNW 9 15 29.73 1007 10 16.0934 0 0
2:53 am 02:53 Clear 64 17.8 49 9.4 58 58 N 7 11 29.72 1006 10 16.0934 0 0
3:53 am 03:53 Clear 63 17.2 50 10 63 63 N 6 9 29.72 1006 10 16.0934 0 0
4:53 am 04:53 Clear 61 16.1 51 10.6 70 70 N 6 9 29.72 1007 10 16.0934 0 0
5:53 am 05:53 Sunny 60 15.6 48 8.9 65 65 NW 6 9 29.75 1007 10 16.0934 0 0
6:53 am 06:53 Sunny 65 18.3 52 11.1 63 63 NW 6 9 29.76 1008 10 16.0934 0 0
7:53 am 07:53 Sunny 66 18.9 52 11.1 61 61 W 7 11 29.78 1009 10 16.0934 0 0
8:53 am 08:53 Sunny 73 22.8 52 11.1 48 48 W 8 13 29.78 1008 10 16.0934 0 0
9:53 am 09:53 Sunny 77 25 55 12.8 47 47 W 9 15 29.77 1008 10 16.0934 0 0
10:53 am 10:53 Sunny 79 26.1 56 13.3 45 45 NNW 5 7 29.74 1007 10 16.0934 0 0
11:53 am 11:53 Sunny 84 28.9 54 12.2 36 36 SW 6 9 29.72 1006 10 16.0934 0 0
12:53 pm 12:53 Sunny 87 30.6 52 11.1 30 30 VRB 6 9 29.7 1006 10 16.0934 0 0
1:53 pm 13:53 Partly Cloudy with Light Rain 84 28.9 51 10.6 32 32 ESE 18 30 29.67 1005 10 16.0934 0 0.0254
2:06 pm 14:06 Mostly Cloudy with Light Thunderstorms 84 28.9 39 3.9 20 20 S 10 17 29.47 998 10 16.0934 0 0.0254
2:42 pm 14:42 Mostly Cloudy with Light Thunderstorms 70 21 55 13 60 60 N 8 13 29.62 1003 10 16.0934 0 0
2:53 pm 14:53 Mostly Cloudy with Thunderstorms 71 21.7 57 13.9 61 61 NW 7 11 29.73 1007 10 16.0934 0.03 0.762
3:27 pm 15:27 Partly Cloudy with Nearby Thunderstorms 76 24.4 55 12.8 48 48 NNE 14 22 29.59 1002 10 16.0934 0 0.0254
3:41 pm 15:41 Mostly Sunny 76 24.4 55 12.8 48 48 E 13 20 29.59 1002 10 16.0934 0 0.0254
3:53 pm 15:53 Sunny 74 23.3 56 13.3 54 54 NE 10 17 29.69 1005 10 16.0934 0 0.0254
4:44 pm 16:44 Partly Cloudy with Nearby Thunderstorms 79 26 54 12 42 42 S 6 9 29.56 1001 10 16.0934 0 0
4:53 pm 16:53 Partly Cloudy with Nearby Thunderstorms 77 25 58 14.4 52 52 S 5 7 29.69 1005 10 16.0934 0 0
5:14 pm 17:14 Sunny 81 27 52 11 37 37 VRB 6 9 29.56 1001 10 16.0934 0 0
5:53 pm 17:53 Sunny 81 27.2 56 13.3 42 42 SSE 10 17 29.65 1004 10 16.0934 0 0.0254
6:53 pm 18:53 Sunny 77 25 61 16.1 58 58 N 7 11 29.67 1005 10 16.0934 0 0
7:53 pm 19:53 Sunny 74 23.3 55 12.8 52 52 N 18 30 29.74 1007 10 16.0934 0 0
8:53 pm 20:53 Clear 71 21.7 56 13.3 59 59 N 6 9 29.76 1008 10 16.0934 0 0
9:53 pm 21:53 Clear 68 20 58 14.4 70 70 SSE 7 11 29.79 1009 10 16.0934 0 0
10:53 pm 22:53 Clear 63 17.2 57 13.9 81 81 SW 7 11 29.8 1009 10 16.0934 0 0
11:53 pm 23:53 Clear 63 17.2 57 13.9 81 81 Calm 29.76 1008 10 16.0934 0 0

Powered by AerisWeather